Location: Brookfield Center
(41.2406°N, 80.5579°W)
Time: 01:59:33
(UTC+00:00)

Cosmos 1606 Rocket - Pass Details

Date: 18 January 2020
Orbit: 602 x 633 km, 82.5° (Epoch: 22 February)

Event Time Altitude Azimuth Distance (km) Brightness Sun altitude
Rises 11:08:01 0° 181° (S) 2,911 7.2 -17.9°
Reaches altitude 10° 11:10:15 10° 179° (S) 2,006 6.3 -17.5°
Maximum altitude 11:14:41 71° 96° (E) 669 3.9 -16.7°
Drops below altitude 10° 11:19:07 10° 12° (NNE) 2,008 6.2 -15.8°
Sets 11:21:21 0° 11° (N) 2,915 7.0 -15.4°
